"Pseudo-MPEC" for C0WAZC2

Created 2019 Sep 18 12:07:03 UT using Find_Orb

Click here for an explanation of pseudo-MPECs

 
 Astrometry: 
     C0WAZC2  C2019 09 04.41949 03 26 50.12 +02 23 36.5    ~94Aq 21.4 GVNEOCPG96
     C0WAZC2  C2019 09 04.42464 03 26 50.06 +02 23 39.4    ~94Aq 21.2 GVNEOCPG96
     C0WAZC2  C2019 09 04.42978 03 26 49.98 +02 23 42.6    ~94Aq 21.2 GVNEOCPG96
     C0WAZC2  C2019 09 04.43492 03 26 49.93 +02 23 45.6    ~94Aq 21.0 GVNEOCPG96
     C0WAZC2  C2019 09 04.49606 03 26 49.14 +02 24 19.5    ~94Cb 21.2 GVNEOCPG96
     C0WAZC2  C2019 09 04.49716 03 26 49.10 +02 24 20.0    ~94Cb 21.5 GVNEOCPG96
     C0WAZC2  C2019 09 04.49939 03 26 49.08 +02 24 21.7    ~94Cb 22.4 GVNEOCPG96

Station data:
(G96) Mt. Lemmon Survey  (N32.442754 W110.788720)  US/Arizona.  Observers T.
   A. Pruyne, B. M. Africano, E. J. Christensen, G. A. Farneth, D. C. Fuls,
   A. R. Gibbs, A. D. Grauer, H. Groeller, J. A. Johnson, R. A. Kowalski, S.
   M. Larson, G. J. Leonard, D. Rankin, R. L. Seaman, F. C. Shelly. 1.5-m
   reflector + 10K CCD.

Orbital elements:  C0WAZC2
   Perihelion 2019 Apr 15.766129 +/- 127 TT = 18:23:13 (JD 2458589.266129)
Epoch 2019 Sep  4.0 TT = JDT 2458730.5   Earth MOID: 0.5260   Ma: 0.0983
M  38.00460641 +/- 80               (J2000 ecliptic)          AutoNEOCP
n   0.26908988 +/- 0.448            Peri.  252.54997 +/- 90
a   2.37613510 +/- 2.64             Node    38.07936 +/- 24
e   0.4409287 +/- 0.237             Incl.   29.52777 +/- 34
P   3.66                   H 18.6   G  0.15   U 12.2  SR
q 1.32842893 +/- 0.882    Q 3.42384128 +/- 24.2
From 7 observations 2019 Sept. 4 (1.9 hr); mean residual 0".16
Residuals in arcseconds: 
190904 G96  .01-  .18-    190904 G96  .09+  .27+    190904 G96  .03-  .24+    
190904 G96  .07+  .17-    190904 G96  .21+  .10-    
190904 G96  .15-  .15+    190904 G96  .17-  .21-    

Ephemerides (geocentric):
Date (UTC) HH   RA              Dec         delta   r     elong  mag " sig PA
---- -- -- --  -------------   -----------  ------ ------ -----  --- ---- ---
2019 09 18 12  03 19 55.018   +04 34 52.82  1.1675 1.9293 125.1 21.5  59d 179
2019 09 18 13  03 19 52.976   +04 35 16.18  1.1673 1.9295 125.1 21.5  59d 179
2019 09 18 14  03 19 50.928   +04 35 39.55  1.1671 1.9298 125.2 21.5  59d 179
2019 09 18 15  03 19 48.875   +04 36 02.92  1.1670 1.9300 125.2 21.5  59d 179
2019 09 18 16  03 19 46.818   +04 36 26.29  1.1668 1.9302 125.3 21.5  59d 179
2019 09 18 17  03 19 44.756   +04 36 49.66  1.1666 1.9304 125.3 21.5  59d 179
2019 09 18 18  03 19 42.688   +04 37 13.03  1.1664 1.9307 125.4 21.5  59d 179
2019 09 18 19  03 19 40.616   +04 37 36.40  1.1662 1.9309 125.4 21.5  59d 179
2019 09 18 20  03 19 38.539   +04 37 59.77  1.1660 1.9311 125.5 21.5  59d 179
2019 09 18 21  03 19 36.457   +04 38 23.15  1.1659 1.9314 125.5 21.5  59d 179
2019 09 18 22  03 19 34.371   +04 38 46.52  1.1657 1.9316 125.6 21.5  59d 179
2019 09 18 23  03 19 32.279   +04 39 09.90  1.1655 1.9318 125.6 21.5  59d 179
2019 09 19 00  03 19 30.182   +04 39 33.27  1.1653 1.9320 125.7 21.5  59d 179
2019 09 19 01  03 19 28.081   +04 39 56.65  1.1651 1.9323 125.7 21.5  59d 179
2019 09 19 02  03 19 25.975   +04 40 20.03  1.1649 1.9325 125.8 21.5  59d 179
2019 09 19 03  03 19 23.863   +04 40 43.40  1.1648 1.9327 125.8 21.5  59d 179
2019 09 19 04  03 19 21.747   +04 41 06.78  1.1646 1.9330 125.9 21.5  59d 179
2019 09 19 05  03 19 19.626   +04 41 30.16  1.1644 1.9332 125.9 21.5  59d 179
2019 09 19 06  03 19 17.501   +04 41 53.54  1.1642 1.9334 125.9 21.5  59d 179
2019 09 19 07  03 19 15.370   +04 42 16.92  1.1640 1.9336 126.0 21.5  59d 179
2019 09 19 08  03 19 13.234   +04 42 40.30  1.1638 1.9339 126.0 21.5  59d 179
2019 09 19 09  03 19 11.094   +04 43 03.69  1.1637 1.9341 126.1 21.5  59d 179
2019 09 19 10  03 19 08.948   +04 43 27.07  1.1635 1.9343 126.1 21.5  59d   0
2019 09 19 11  03 19 06.798   +04 43 50.46  1.1633 1.9346 126.2 21.5  59d   0
2019 09 19 12  03 19 04.643   +04 44 13.84  1.1631 1.9348 126.2 21.5  59d   0
2019 09 19 13  03 19 02.483   +04 44 37.23  1.1629 1.9350 126.3 21.5  59d   0
2019 09 19 14  03 19 00.318   +04 45 00.61  1.1628 1.9352 126.3 21.5  59d   0
2019 09 19 15  03 18 58.148   +04 45 24.00  1.1626 1.9355 126.4 21.5  60d   0
2019 09 19 16  03 18 55.973   +04 45 47.39  1.1624 1.9357 126.4 21.5  60d   0
2019 09 19 17  03 18 53.794   +04 46 10.78  1.1622 1.9359 126.5 21.5  60d   0
2019 09 19 18  03 18 51.609   +04 46 34.17  1.1620 1.9362 126.5 21.5  60d   0
2019 09 19 19  03 18 49.420   +04 46 57.56  1.1619 1.9364 126.6 21.5  60d   0
2019 09 19 20  03 18 47.226   +04 47 20.95  1.1617 1.9366 126.6 21.5  60d   1
2019 09 19 21  03 18 45.027   +04 47 44.34  1.1615 1.9368 126.7 21.5  61d   1
2019 09 19 22  03 18 42.823   +04 48 07.74  1.1613 1.9371 126.7 21.5  61d   1
2019 09 19 23  03 18 40.614   +04 48 31.13  1.1611 1.9373 126.8 21.5  61d   1
2019 09 20 00  03 18 38.400   +04 48 54.53  1.1610 1.9375 126.8 21.5  61d   1
2019 09 20 01  03 18 36.182   +04 49 17.92  1.1608 1.9378 126.8 21.5  61d   1
2019 09 20 02  03 18 33.958   +04 49 41.32  1.1606 1.9380 126.9 21.5  61d   1
2019 09 20 03  03 18 31.730   +04 50 04.71  1.1604 1.9382 126.9 21.5  62d   1
2019 09 20 04  03 18 29.496   +04 50 28.11  1.1602 1.9384 127.0 21.5  62d   1
2019 09 20 05  03 18 27.258   +04 50 51.51  1.1601 1.9387 127.0 21.5  62d   1
2019 09 20 06  03 18 25.015   +04 51 14.91  1.1599 1.9389 127.1 21.5  62d   1
2019 09 20 07  03 18 22.767   +04 51 38.31  1.1597 1.9391 127.1 21.5  62d   1
2019 09 20 08  03 18 20.514   +04 52 01.71  1.1595 1.9394 127.2 21.5  62d   1
2019 09 20 09  03 18 18.257   +04 52 25.11  1.1594 1.9396 127.2 21.5  62d   1
2019 09 20 10  03 18 15.994   +04 52 48.52  1.1592 1.9398 127.3 21.5  62d   1
2019 09 20 11  03 18 13.727   +04 53 11.92  1.1590 1.9400 127.3 21.5  63d   0